EW6618 Weather Reports


Display with metric or nautical units.
time (UTC)temp
F
wind
direction
speed
MPH
gust
MPH
rain 1hr
in
rain 24hr
in
rain mn
in
humidity
%
barometer
mb
20260510154924 63 8 2.0 4.0 0.00 0.00 0.00 88 1013.8
20260510153914 62 261 1.0 4.0 0.00 0.00 0.00 89 1013.8
20260510151805 61 103 0.0 0.0 0.00 0.00 0.00 91 1013.7
20260510150820 61 103 0.0 1.0 0.00 0.00 0.00 92 1013.7
20260510145812 60 87 0.0 3.0 0.00 0.00 0.00 92 1013.7
20260510144833 60 98 0.0 0.0 0.00 0.00 0.00 93 1013.7
20260510143827 60 98 0.0 2.0 0.00 0.00 0.00 93 1013.6
20260510142802 60 78 0.0 3.0 0.00 0.00 0.00 94 1013.5
20260510141741 60 136 0.0 0.0 0.00 0.00 0.00 94 1013.5
20260510140751 59 278 0.0 0.0 0.00 0.00 0.00 94 1013.5
20260510135755 60 278 0.0 0.0 0.00 0.00 0.00 94 1013.4
20260510134735 60 278 0.0 0.0 0.00 0.00 0.00 94 1013.3
20260510133738 60 274 1.0 3.0 0.00 0.00 0.00 94 1013.2
20260510132748 60 249 1.0 3.0 0.00 0.00 0.00 94 1013.1
20260510131735 59 257 0.0 0.0 0.00 0.00 0.00 94 1013.1
20260510130735 60 287 1.0 3.0 0.00 0.00 0.00 94 1013.1
20260510125758 60 258 0.0 3.0 0.00 0.00 0.00 94 1013.0
20260510124814 60 238 1.0 4.0 0.00 0.00 0.00 94 1013.1
20260510123835 60 243 1.0 4.0 0.00 0.00 0.00 95 1013.1
20260510122806 60 260 1.0 6.0 0.00 0.00 0.00 94 1013.1
20260510114451 60 231 2.0 4.0 0.00 0.00 0.00 94 1013.0
20260510113427 60 242 0.0 4.0 0.00 0.00 0.00 94 1013.0
20260510112448 60 256 1.0 0.0 0.00 0.00 0.00 94 1013.0
20260510111453 60 283 1.0 3.0 0.00 0.00 0.00 94 1012.9
20260510110506 60 197 0.0 1.0 0.00 0.00 0.00 94 1012.9
20260510105446 59 314 0.0 0.0 0.00 0.00 0.00 94 1012.9
20260510104429 59 293 0.0 2.0 0.00 0.00 0.00 94 1013.0
20260510103420 59 302 0.0 1.0 0.00 0.00 0.00 94 1013.0
20260510102432 59 303 0.0 3.0 0.00 0.00 0.00 94 1012.9
20260510101438 59 304 0.0 2.0 0.00 0.00 0.00 94 1012.9
20260510095342 59 298 0.0 3.0 0.00 0.00 0.00 94 1013.1
20260510094346 59 319 0.0 0.0 0.00 0.00 0.00 94 1013.2
20260510093322 59 13 0.0 0.0 0.00 0.00 0.00 94 1013.1
20260510092324 59 269 0.0 3.0 0.00 0.00 0.00 94 1013.2
20260510091348 59 101 0.0 0.0 0.00 0.00 0.00 94 1013.2
20260510090333 59 101 0.0 0.0 0.00 0.00 0.00 95 1013.2
20260510084156 59 140 0.0 1.0 0.00 0.00 0.00 95 1013.2
20260510083202 59 274 0.0 0.0 0.00 0.00 0.00 95 1013.1
20260510082136 59 274 0.0 0.0 0.00 0.00 0.00 95 1013.3
20260510080015 59 274 0.0 0.0 0.00 0.00 0.00 95 1013.4
20260510075037 58 274 0.0 0.0 0.00 0.00 0.00 95 1013.5
20260510074049 58 274 0.0 1.0 0.00 0.00 0.00 94 1013.6
20260510073044 58 272 0.0 2.0 0.00 0.00 0.00 95 1013.6
20260510072040 58 259 0.0 2.0 0.00 0.00 0.00 94 1013.7
20260510071044 58 320 0.0 0.0 0.00 0.00 0.00 95 1013.6
20260510070041 58 320 0.0 0.0 0.00 0.00 0.00 94 1013.6
20260510063932 58 320 0.0 0.0 0.00 0.00 0.00 94 1013.7
20260510062914 58 320 0.0 0.0 0.00 0.00 0.00 94 1013.6
20260510061908 58 301 0.0 0.0 0.00 0.00 0.00 94 1013.6
20260510060926 58 301 0.0 0.0 0.00 0.00 0.00 94 1013.6
20260510055931 58 307 0.0 0.0 0.00 0.00 0.00 94 1013.6
20260510054939 58 301 0.0 3.0 0.00 0.00 0.00 94 1013.7
20260510052857 58 287 0.0 3.0 0.00 0.00 0.00 94 1013.8
20260510050732 58 312 1.0 5.0 0.00 0.00 0.00 94 1013.7
20260510045750 58 272 1.0 5.0 0.00 0.00 0.00 94 1013.9
20260510044724 58 285 1.0 7.0 0.00 0.00 0.00 94 1013.7
20260510043739 58 311 2.0 7.0 0.00 0.00 0.00 94 1013.7
20260510041542 58 274 1.0 5.0 0.00 0.00 0.00 93 1013.5
20260510034240 58 354 4.0 11.0 0.00 0.00 0.00 92 1013.3
20260510033243 59 240 4.0 11.0 0.00 0.00 0.00 93 1013.1
20260510032244 59 300 3.0 8.0 0.00 0.00 0.00 93 1013.0
20260510031215 59 250 3.0 8.0 0.00 0.00 0.00 92 1012.8
20260510030156 59 261 4.0 8.0 0.00 0.00 0.00 92 1012.8
20260510023958 59 290 5.0 10.0 0.00 0.00 0.00 92 1012.5
20260510022948 59 293 6.0 11.0 0.00 0.00 0.00 92 1012.5
20260510022009 60 270 6.0 11.0 0.00 0.00 0.00 91 1012.5
20260510020959 60 2 5.0 9.0 0.00 0.00 0.00 91 1012.4
20260510015931 60 307 4.0 8.0 0.00 0.00 0.00 90 1012.3
20260510014901 60 263 6.0 11.0 0.00 0.00 0.00 91 1012.2
20260510013839 60 319 6.0 11.0 0.00 0.00 0.00 90 1012.3
20260510012854 61 352 6.0 12.0 0.00 0.00 0.00 90 1012.2
20260510011842 61 266 6.0 13.0 0.00 0.00 0.00 89 1012.2
20260510010904 62 269 6.0 13.0 0.00 0.00 0.00 89 1012.2
20260510005913 62 247 6.0 12.0 0.00 0.00 0.00 88 1012.2
20260510004853 62 275 6.0 9.0 0.00 0.00 0.00 87 1012.2
20260510003913 62 272 5.0 11.0 0.00 0.00 0.00 87 1012.2
20260510002856 63 248 6.0 11.0 0.00 0.00 0.00 87 1012.2
20260510001845 63 250 6.0 9.0 0.00 0.00 0.00 86 1012.2
20260510000902 63 271 5.0 9.0 0.00 0.00 0.00 86 1012.2
20260509235922 63 295 6.0 11.0 0.00 0.00 0.00 85 1012.2
20260509234916 63 231 6.0 11.0 0.00 0.00 0.00 85 1012.3
20260509231729 65 266 7.0 10.0 0.00 0.00 0.00 82 1012.3
20260509230707 65 259 7.0 12.0 0.00 0.00 0.00 81 1012.4
20260509225717 65 152 7.0 12.0 0.00 0.00 0.00 82 1012.4
20260509224724 65 359 6.0 12.0 0.00 0.00 0.00 81 1012.5
20260509223713 66 276 6.0 10.0 0.00 0.00 0.00 79 1012.5
20260509222724 66 60 6.0 11.0 0.00 0.00 0.00 81 1012.6
20260509220649 66 224 6.0 11.0 0.00 0.00 0.00 79 1013.1
20260509215633 67 221 6.0 11.0 0.00 0.00 0.00 80 1013.2
20260509211223 67 302 6.0 12.0 0.00 0.00 0.00 78 1013.5
20260509205122 67 277 6.0 9.0 0.00 0.00 0.00 78 1013.6
20260509204126 68 256 6.0 9.0 0.00 0.00 0.00 78 1013.6
20260509203137 68 257 6.0 11.0 0.00 0.00 0.00 77 1013.8
20260509202148 68 226 6.0 11.0 0.00 0.00 0.00 78 1013.7
20260509201158 68 273 6.0 9.0 0.00 0.00 0.00 77 1013.8
20260509200206 68 231 6.0 9.0 0.00 0.00 0.00 78 1013.8
20260509195146 68 232 6.0 9.0 0.00 0.00 0.00 78 1013.9
20260509194154 68 219 6.0 8.0 0.00 0.00 0.00 78 1013.8
20260509193142 68 238 6.0 8.0 0.00 0.00 0.00 78 1014.0
20260509192206 68 238 5.0 9.0 0.00 0.00 0.00 79 1014.1
20260509191229 68 239 6.0 9.0 0.00 0.00 0.00 79 1014.2
20260509190241 67 238 6.0 9.0 0.00 0.00 0.00 80 1014.1
20260509185231 67 231 6.0 9.0 0.00 0.00 0.00 81 1014.3
20260509184207 67 291 6.0 9.0 0.00 0.00 0.00 81 1014.4
20260509182019 66 15 5.0 9.0 0.00 0.00 0.00 83 1014.3
20260509180954 65 288 4.0 9.0 0.00 0.00 0.00 84 1014.3
20260509175930 65 256 4.0 8.0 0.00 0.00 0.00 85 1014.4
20260509174932 65 284 4.0 8.0 0.00 0.00 0.00 85 1014.5
20260509173901 64 316 5.0 8.0 0.00 0.00 0.00 86 1014.4
20260509171735 64 300 4.0 8.0 0.00 0.00 0.00 87 1014.3
20260509170731 63 289 4.0 8.0 0.00 0.00 0.00 88 1014.1
20260509165719 63 317 3.0 6.0 0.00 0.00 0.00 87 1014.1
20260509164714 64 257 3.0 4.0 0.00 0.00 0.00 86 1014.1
20260509162544 64 288 0.0 3.0 0.00 0.00 0.00 84 1014.0
20260509161608 64 99 0.0 0.0 0.00 0.00 0.00 87 1014.1
20260509160610 63 96 0.0 3.0 0.00 0.00 0.00 87 1014.1